Regional Weather Roundup
Issued by NWS

Current Version | Previous Version | Text Only | Print | Product List | Glossary On
Versions: 1 2 3 4 5 6 7 8 9 10 11 12 13 14 15 16 17 18 19 20 21 22 23 24 25 26 27 28 29 30 31 32 33 34 35 36 37 38 39 40 41 42 43 44 45 46 47 48 49 50
000
ASUS42 KKEY 251910
RWRKEY

FLORIDA REGIONAL WEATHER ROUNDUP FOR THE FLORIDA KEYS
NATIONAL WEATHER SERVICE KEY WEST FLORIDA
300 PM EDT SAT APR 25 2015

...SOUTH FLORIDA AND THE KEYS...

CITY           SKY/WX    TMP DP  RH WIND       PRES   REMARKS
FORT MYERS     SUNNY     89  71  55 SW12G20   29.90F HX  95
SW REGIONAL AP MOSUNNY   89  71  55 W9        29.91F HX  95
NAPLES         SUNNY     87  73  62 W12       29.91F HX  94
MIAMI          HVY RAIN  83  77  82 E15       29.89F VSB 1   HX  92
WEST KENDALL   MOSUNNY   90  73  57 SW13      29.89F HX  98
HOMESTEAD      MOSUNNY   90  74  60 S15       29.88F HX  99
MARATHON       SUNNY     88  76  67 VRB6      29.92F HX  99
BOCA CHICA NAS SUNNY     86  71  60 VRB5      29.92F HX  91
KEY WEST INTL  SUNNY     85  74  69 VRB3      29.93F HX  92

...INTERNATIONAL WEATHER...

CITY           SKY/WX    TMP DP  RH WIND       PRES   REMARKS
NASSAU BAHAMAS MOSUNNY   82  72  69 VRB1      29.94F
CANCUN MEXICO  MOSUNNY   90  73  58 SE21      29.88F HX  98
COZUMEL MEXICO MOSUNNY   88  73  62 S13       29.90F HX  96

ADJACENT COASTAL WATERS...

STATION/POSITION TIME  SKY/WX   TEMP    WIND        PRES    WAVE
                                AIR SEA DIR/SP/G            HT/PER
                 (UTC)          (F)     (DEG/KT/KT) (MB)    (FT/S)
PULASKI SHOAL LI 1800            81     180/  6/  7 1013.5F
SAND KEY         1850            81     200/  3/  4 1013.4F
SOMBRERO KEY     1900            84     190/  3/  4 1013.9F
LONG KEY         1800            82 87  250/  2/  6 1014.6F
MOLASSES REEF    1900            81 82  230/  8/  9 1013.2F
FOWEY ROCKS      NOT AVBL

$$


USA.gov is the U.S. government's official web portal to all federal, state and local government web resources and services.